Weather History for Aurora, CO

Change the Weather History Date:

Wednesday, July 10, 2013

  Actual Average Record
Temperature  
Mean Temperature 74 °F -  
Max Temperature 91 °F 86 °F 95 °F (2008)
Min Temperature 57 °F 59 °F 53 °F (1999)
Cooling Degree Days 9    
Growing Degree Days 24 (Base 50)    
Moisture  
Dew Point 52 °F    
Average Humidity 46    
Maximum Humidity 88    
Minimum Humidity 21    
Precipitation  
Precipitation 0.00 in - - ()
Sea Level Pressure  
Sea Level Pressure 30.00 in    
Wind  
Wind Speed 10 mph (South)    
Max Wind Speed 28 mph    
Max Gust Speed 40 mph    
Averages and records for this station are not official NWS values.
T = Trace of Precipitation, MM = Missing Value Source: NWS Daily Summary

Daily Weather History Graph

Daily Weather History Graph

Search for Another Location

Airport:

Trip Planner

Search our weather history database for the weather conditions in past years. The results will help you decide how hot, cold, wet, or windy it might be!

Date:

Astronomy

Jul. 10, 2013 Rise Set
Actual Time 5:40 AM MDT 8:28 PM MDT
Civil Twilight 5:08 AM MDT 9:00 PM MDT
Nautical Twilight 4:28 AM MDT 9:40 PM MDT
Astronomical Twilight 3:42 AM MDT 10:26 PM MDT
Moon 8:03 AM MDT (7/10) 9:40 PM MDT (7/10)
Length of Visible Light 15h 51m
Length of Day
14h 48m
Waxing Crescent, 5% of the Moon is Illuminated
Jul 10
Waxing Crescent
Jul 15
First Quarter
Jul 22
Full
Jul 29
Last Quarter
Aug 6
New

Hourly Weather History & Observations

Time (MDT) Temp. Heat Index Dew Point Humidity Pressure Visibility Wind Dir Wind Speed Gust Speed Precip Events Conditions
12:55 AM 69.8 °F - 48.2 °F 46% 30.02 in 25.0 mi East 13.8 mph 19.6 mph N/A   Scattered Clouds
1:55 AM 66.2 °F - 53.6 °F 64% 30.04 in 25.0 mi ESE 8.1 mph - N/A   Scattered Clouds
2:55 AM 64.4 °F - 55.4 °F 73% 30.05 in 25.0 mi South 3.5 mph - N/A   Scattered Clouds
3:55 AM 60.8 °F - 55.4 °F 82% 30.05 in 25.0 mi NNW 6.9 mph - N/A   Scattered Clouds
4:55 AM 62.6 °F - 55.4 °F 77% 30.04 in 25.0 mi NNE 3.5 mph - N/A   Scattered Clouds
5:55 AM 57.2 °F - 53.6 °F 88% 30.05 in 25.0 mi South 8.1 mph - N/A   Scattered Clouds
6:55 AM 62.6 °F - 51.8 °F 68% 30.04 in 25.0 mi South 5.8 mph - N/A   Mostly Cloudy
7:55 AM 66.2 °F - 53.6 °F 64% 30.03 in 25.0 mi SW 8.1 mph - N/A   Mostly Cloudy
8:55 AM 73.4 °F - 50.0 °F 44% 30.04 in 25.0 mi SSE 2.3 mph - N/A   Mostly Cloudy
9:55 AM 78.8 °F - 50.0 °F 36% 30.04 in 25.0 mi East 2.3 mph - N/A   Mostly Cloudy
10:55 AM 84.2 °F - 50.0 °F 30% 30.00 in 25.0 mi ENE 6.9 mph - N/A   Mostly Cloudy
11:55 AM 87.8 °F - 46.4 °F 24% 29.97 in 25.0 mi ENE 2.3 mph - N/A   Mostly Cloudy
12:55 PM 91.4 °F - 46.4 °F 21% 29.94 in 25.0 mi SE 8.1 mph - N/A   Mostly Cloudy
1:20 PM 86.0 °F 84.2 °F 53.6 °F 33% 30.21 in 25.0 mi NW 17.3 mph 28.8 mph N/A Thunderstorm Mostly Cloudy
1:40 PM 80.6 °F 80.5 °F 55.4 °F 42% 30.23 in 25.0 mi West 19.6 mph - N/A Rain , Thunderstorm Light Thunderstorms and Rain
1:55 PM 80.6 °F - 48.2 °F 32% 29.99 in 25.0 mi SSE 9.2 mph - N/A Rain , Thunderstorm Light Thunderstorms and Rain
2:29 PM 86.0 °F 84.2 °F 53.6 °F 33% 30.21 in 25.0 mi NW 15.0 mph - N/A Thunderstorm Mostly Cloudy
2:55 PM 89.6 °F 87.7 °F 55.4 °F 31% 29.94 in 25.0 mi NNW 12.7 mph 19.6 mph N/A Thunderstorm Mostly Cloudy
3:55 PM 87.8 °F - 51.8 °F 29% 29.94 in 25.0 mi West 9.2 mph 17.3 mph N/A   Mostly Cloudy
4:55 PM 87.8 °F - 48.2 °F 25% 29.92 in 25.0 mi South 17.3 mph 27.6 mph N/A   Mostly Cloudy
5:55 PM 86.0 °F - 50.0 °F 29% 29.92 in 25.0 mi SSE 16.1 mph 23.0 mph N/A   Mostly Cloudy
6:55 PM 86.0 °F - 48.2 °F 27% 29.89 in 25.0 mi South 15.0 mph - N/A   Scattered Clouds
7:55 PM 80.6 °F - 50.0 °F 34% 29.89 in 25.0 mi South 15.0 mph - N/A   Scattered Clouds
8:55 PM 75.2 °F - 51.8 °F 44% 29.91 in 25.0 mi South 15.0 mph - N/A   Mostly Cloudy
9:55 PM 73.4 °F - 51.8 °F 47% 29.90 in 25.0 mi South 21.9 mph 36.8 mph N/A   Mostly Cloudy
10:55 PM 71.6 °F - 53.6 °F 53% 29.91 in 25.0 mi South 26.5 mph 40.3 mph N/A   Mostly Cloudy
11:55 PM 69.8 °F - 53.6 °F 56% 29.92 in 25.0 mi South 27.6 mph 36.8 mph N/A   Mostly Cloudy